Weather History for Rockwall, TX

Change the Weather History Date:

Thursday, April 10, 2014

  Actual Average (KDFW) Record (KDFW)
Temperature  
Mean Temperature 69 °F 64 °F  
Max Temperature 82 °F 75 °F 98 °F (1963)
Min Temperature 56 °F 53 °F 30 °F (1973)
Degree Days  
Heating Degree Days 0 4  
Month to date heating degree days 44  
Since 1 July heating degree days 2237  
Cooling Degree Days 4 3  
Month to date cooling degree days 22  
Year to date cooling degree days 61  
Growing Degree Days 19 (Base 50)    
Moisture  
Dew Point 53 °F    
Average Humidity 56    
Maximum Humidity 82    
Minimum Humidity 35    
Precipitation  
Precipitation 0.00 in 0.08 in 1.01 in (1995)
Month to date precipitation 0.89  
Year to date precipitation 9.17  
Snow  
Snow 0.00 in 0.00 in 0.00 in ()
Month to date snowfall 0.0  
Since 1 July snowfall 1.2  
Snow Depth -    
Sea Level Pressure  
Sea Level Pressure 29.94 in    
Wind  
Wind Speed 17 mph (SSE)    
Max Wind Speed 29 mph    
Max Gust Speed 38 mph    
Visibility 10 miles    
Events      
T = Trace of Precipitation, MM = Missing Value Source: NWS Daily Summary

Daily Weather History Graph

Daily Weather History Graph

Search for Another Location

Airport:

Trip Planner

Search our weather history database for the weather conditions in past years. The results will help you decide how hot, cold, wet, or windy it might be!

Date:

Astronomy

Apr. 10, 2014 Rise Set
Actual Time 7:02 AM CDT 7:52 PM CDT
Civil Twilight 6:36 AM CDT 8:17 PM CDT
Nautical Twilight 6:07 AM CDT 8:47 PM CDT
Astronomical Twilight 5:36 AM CDT 9:17 PM CDT
Moon 3:50 PM CDT (4/10) 4:11 AM CDT (4/10)
Length of Visible Light 13h 40m
Length of Day
12h 50m
Waxing Gibbous, 80% of the Moon is Illuminated
Apr 10
Waxing Gibbous
Apr 15
Full
Apr 22
Last Quarter
Apr 29
New
May 6
First Quarter

Hourly Weather History & Observations

Time (CDT) Temp. Heat Index Dew Point Humidity Pressure Visibility Wind Dir Wind Speed Gust Speed Precip Events Conditions
12:35 AM 62.1 °F - 47.3 °F 58% 30.01 in 10.0 mi SE 12.7 mph 17.3 mph N/A   Clear
12:55 AM 63.1 °F - 47.3 °F 56% 30.01 in 10.0 mi SSE 12.7 mph - N/A   Clear
1:15 AM 63.0 °F - 47.8 °F 58% 30.00 in 10.0 mi SSE 15.0 mph 20.7 mph N/A   Clear
1:35 AM 62.6 °F - 48.4 °F 60% 30.00 in 10.0 mi SSE 13.8 mph 21.9 mph N/A   Clear
1:55 AM 61.7 °F - 48.7 °F 62% 30.00 in 10.0 mi SSE 15.0 mph 20.7 mph N/A   Clear
2:15 AM 61.5 °F - 49.3 °F 64% 30.00 in 10.0 mi SSE 16.1 mph 19.6 mph N/A   Clear
2:35 AM 61.2 °F - 49.8 °F 66% 30.00 in 10.0 mi SSE 15.0 mph - N/A   Clear
2:55 AM 61.0 °F - 50.4 °F 68% 29.99 in 10.0 mi SSE 16.1 mph 20.7 mph N/A   Clear
3:15 AM 60.8 °F - 50.9 °F 70% 29.98 in 10.0 mi SSE 13.8 mph 20.7 mph N/A   Clear
3:55 AM 59.7 °F - 51.4 °F 74% 29.97 in 10.0 mi SSE 16.1 mph 19.6 mph N/A   Clear
4:15 AM 59.9 °F - 52.0 °F 75% 29.97 in 10.0 mi SSE 16.1 mph 20.7 mph N/A   Clear
4:35 AM 59.4 °F - 52.0 °F 77% 29.97 in 10.0 mi SSE 16.1 mph 23.0 mph N/A   Clear
4:55 AM 59.2 °F - 52.0 °F 77% 29.97 in 10.0 mi SSE 15.0 mph 20.7 mph N/A   Clear
5:15 AM 59.0 °F - 52.0 °F 78% 29.96 in 10.0 mi SSE 13.8 mph 20.7 mph N/A   Clear
5:35 AM 58.3 °F - 51.8 °F 79% 29.97 in 10.0 mi SSE 13.8 mph - N/A   Clear
5:55 AM 58.1 °F - 51.3 °F 78% 29.97 in 10.0 mi SSE 13.8 mph - N/A   Clear
6:15 AM 57.6 °F - 51.3 °F 79% 29.97 in 10.0 mi SSE 12.7 mph - N/A   Clear
6:35 AM 57.2 °F - 51.1 °F 80% 29.97 in 10.0 mi SSE 12.7 mph - N/A   Clear
7:15 AM 56.5 °F - 50.9 °F 82% 29.97 in 10.0 mi SSE 12.7 mph 19.6 mph N/A   Clear
7:35 AM 56.8 °F - 51.1 °F 81% 29.97 in 10.0 mi SSE 13.8 mph 19.6 mph N/A   Clear
7:55 AM 57.6 °F - 51.8 °F 81% 29.97 in 10.0 mi SSE 12.7 mph 18.4 mph N/A   Clear
8:15 AM 58.5 °F - 52.5 °F 81% 29.98 in 10.0 mi SSE 12.7 mph 20.7 mph N/A   Clear
8:35 AM 59.9 °F - 53.6 °F 80% 29.99 in 10.0 mi SSE 16.1 mph 21.9 mph N/A   Clear
8:55 AM 61.2 °F - 54.0 °F 77% 29.98 in 10.0 mi SSE 17.3 mph 23.0 mph N/A   Clear
9:15 AM 62.8 °F - 54.5 °F 74% 29.99 in 10.0 mi SSE 19.6 mph 25.3 mph N/A   Clear
9:35 AM 64.4 °F - 54.9 °F 71% 29.99 in 10.0 mi SSE 17.3 mph 25.3 mph N/A   Clear
9:55 AM 65.7 °F - 55.0 °F 69% 29.99 in 10.0 mi SSE 17.3 mph 25.3 mph N/A   Clear
10:15 AM 68.0 °F - 55.6 °F 64% 29.99 in 10.0 mi SSE 17.3 mph 27.6 mph N/A   Clear
10:35 AM 69.6 °F - 53.2 °F 56% 29.99 in 10.0 mi South 19.6 mph 31.1 mph N/A   Clear
10:55 AM 71.6 °F - 53.6 °F 53% 29.99 in 10.0 mi South 23.0 mph 28.8 mph N/A   Clear
11:15 AM 72.7 °F - 53.4 °F 51% 29.99 in 10.0 mi SSE 19.6 mph 31.1 mph N/A   Clear
11:35 AM 73.9 °F - 53.6 °F 49% 29.98 in 10.0 mi SSE 21.9 mph 29.9 mph N/A   Clear
11:55 AM 75.2 °F - 53.1 °F 46% 29.98 in 10.0 mi SSE 24.2 mph 29.9 mph N/A   Clear
12:15 PM 76.1 °F - 52.2 °F 43% 29.97 in 10.0 mi SSE 23.0 mph 32.2 mph N/A   Clear
12:35 PM 77.0 °F - 52.0 °F 42% 29.96 in 10.0 mi SSE 28.8 mph 35.7 mph N/A   Clear
12:55 PM 77.7 °F - 54.3 °F 44% 29.95 in 10.0 mi SSE 20.7 mph 28.8 mph N/A   Clear
1:15 PM 78.8 °F - 53.4 °F 41% 29.94 in 10.0 mi South 24.2 mph 33.4 mph N/A   Clear
1:35 PM 80.1 °F 80.0 °F 53.4 °F 40% 29.93 in 10.0 mi SSE 25.3 mph 38.0 mph N/A   Clear
1:55 PM 78.3 °F - 53.2 °F 42% 29.92 in 10.0 mi SSE 21.9 mph 34.5 mph N/A   Clear
2:15 PM 79.0 °F - 53.8 °F 42% 29.91 in 10.0 mi SSE 25.3 mph 35.7 mph N/A   Clear
2:35 PM 79.0 °F - 54.9 °F 43% 29.91 in 10.0 mi SSE 20.7 mph 31.1 mph N/A   Clear
2:55 PM 80.2 °F 80.4 °F 55.6 °F 43% 29.90 in 10.0 mi SSE 26.5 mph 36.8 mph N/A   Clear
3:20 PM 81.3 °F 80.9 °F 55.0 °F 40% 29.89 in 10.0 mi SSE 26.5 mph 33.4 mph N/A   Clear
3:35 PM 81.9 °F 81.3 °F 55.2 °F 40% 29.88 in 10.0 mi SSE 24.2 mph 35.7 mph N/A   Clear
3:55 PM 80.2 °F 80.1 °F 53.8 °F 40% 29.88 in 10.0 mi SSE 19.6 mph 32.2 mph N/A   Clear
4:15 PM 80.6 °F - 52.3 °F 37% 29.88 in 10.0 mi South 24.2 mph 34.5 mph N/A   Clear
4:35 PM 80.8 °F 80.4 °F 53.4 °F 39% 29.87 in 10.0 mi SSE 19.6 mph 32.2 mph N/A   Clear
4:55 PM 82.4 °F 81.3 °F 53.2 °F 36% 29.87 in 10.0 mi SSE 24.2 mph 31.1 mph N/A   Clear
5:15 PM 81.9 °F - 51.8 °F 35% 29.87 in 10.0 mi SSE 25.3 mph 33.4 mph N/A   Clear
5:35 PM 81.9 °F - 52.5 °F 36% 29.86 in 10.0 mi SSE 23.0 mph 32.2 mph N/A   Clear
5:55 PM 81.5 °F - 52.3 °F 36% 29.86 in 10.0 mi SSE 26.5 mph 36.8 mph N/A   Clear
6:15 PM 81.5 °F 80.7 °F 53.1 °F 37% 29.86 in 10.0 mi SSE 16.1 mph 29.9 mph N/A   Clear
6:35 PM 81.1 °F 80.6 °F 53.2 °F 38% 29.86 in 10.0 mi SSE 24.2 mph 29.9 mph N/A   Clear
6:55 PM 80.4 °F 80.1 °F 53.6 °F 39% 29.86 in 10.0 mi SSE 19.6 mph 26.5 mph N/A   Clear
7:15 PM 78.8 °F - 52.9 °F 40% 29.87 in 10.0 mi SSE 20.7 mph 29.9 mph N/A   Clear
7:35 PM 77.5 °F - 53.2 °F 43% 29.87 in 10.0 mi SSE 19.6 mph 26.5 mph N/A   Clear
7:55 PM 76.3 °F - 53.6 °F 45% 29.87 in 10.0 mi SE 11.5 mph 20.7 mph N/A   Clear
8:15 PM 74.5 °F - 55.6 °F 52% 29.86 in 10.0 mi SE 11.5 mph 20.7 mph N/A   Clear
8:35 PM 73.8 °F - 55.4 °F 53% 29.87 in 10.0 mi SE 13.8 mph 21.9 mph N/A   Clear
8:55 PM 73.6 °F - 54.5 °F 51% 29.87 in 10.0 mi SE 16.1 mph 24.2 mph N/A   Clear
9:15 PM 73.4 °F - 53.8 °F 50% 29.88 in 10.0 mi SE 16.1 mph 24.2 mph N/A   Clear
9:35 PM 72.5 °F - 53.2 °F 51% 29.89 in 10.0 mi SE 13.8 mph 21.9 mph N/A   Clear
9:55 PM 72.1 °F - 53.6 °F 52% 29.89 in 10.0 mi SE 18.4 mph 24.2 mph N/A   Clear
10:15 PM 71.6 °F - 54.0 °F 54% 29.90 in 10.0 mi SE 13.8 mph 25.3 mph N/A   Clear
10:35 PM 70.9 °F - 54.0 °F 55% 29.90 in 10.0 mi SE 15.0 mph 23.0 mph N/A   Clear
10:55 PM 70.5 °F - 53.8 °F 55% 29.91 in 10.0 mi SE 15.0 mph 21.9 mph N/A   Clear
11:15 PM 69.8 °F - 53.6 °F 56% 29.91 in 10.0 mi SE 16.1 mph 24.2 mph N/A   Clear
11:35 PM 69.6 °F - 53.4 °F 56% 29.92 in 10.0 mi SE 16.1 mph 26.5 mph N/A   Clear
11:55 PM 69.1 °F - 53.1 °F 57% 29.92 in 10.0 mi SE 16.1 mph 26.5 mph N/A   Clear